Washington County, Texas, United States
Lat: 30.22N, Lon: 96.44W
Wx Zone: TXZ197
Local Info
Past Weather Observations for Today

NOTE: This archive is for the closest National Weather Service station to Washington County. Information may differ from the station used for current weather conditions.

Click here for Long-term Archive

Time Weather Temperature Dewpoint Humidity Pressure Winds Precip Visibility
22:55
Clear
81°F / 27°C 72°F / 22°C 74% 30.01 in
(1016 mb)
SSE 6.9 mph
(SSE 11 kph)
- 10SM
22:35
Clear
81°F / 27°C 72°F / 22°C 74% 30.01 in
(1016 mb)
SSE 6.9 mph
(SSE 11 kph)
- 10SM
22:15
Clear
81°F / 27°C 72°F / 22°C 74% 29.98 in
(1015 mb)
SSE 6.9 mph
(SSE 11 kph)
- 10SM
21:55
Clear
82°F / 28°C 73°F / 23°C 74% 29.98 in
(1015 mb)
SE 9.2 mph
(SE 15 kph)
- 10SM
21:35
Clear
82°F / 28°C 73°F / 23°C 74% 29.98 in
(1015 mb)
SSE 10.4 mph
(SSE 17 kph)
- 10SM
21:15
Clear
82°F / 28°C 73°F / 23°C 74% 29.98 in
(1015 mb)
SE 6.9 mph
(SE 11 kph)
- 10SM
20:55
Clear
84°F / 29°C 73°F / 23°C 70% 29.95 in
(1014 mb)
SE 10.4 mph
(SE 17 kph)
- 10SM
20:35
Clear
84°F / 29°C 73°F / 23°C 70% 29.95 in
(1014 mb)
SE 9.2 mph
(SE 15 kph)
- 10SM
20:15
Clear
84°F / 29°C 73°F / 23°C 70% 29.95 in
(1014 mb)
SE 11.5 mph
(SE 19 kph)
- 10SM
19:55
Clear
86°F / 30°C 73°F / 23°C 66% 29.95 in
(1014 mb)
SE 12.7 mph
(SE 20 kph)
- 10SM
19:35
Clear
86°F / 30°C 72°F / 22°C 62% 29.95 in
(1014 mb)
SE 12.7 mph
(SE 20 kph)
- 10SM
19:15
Clear
88°F / 31°C 72°F / 22°C 59% 29.95 in
(1014 mb)
SE 11.5 mph
(SE 19 kph)
- 10SM
18:55
Clear
88°F / 31°C 72°F / 22°C 59% 29.95 in
(1014 mb)
SE 10.4 mph
(SE 17 kph)
- 10SM
18:35
Clear
90°F / 32°C 72°F / 22°C 55% 29.95 in
(1014 mb)
SE 10.4 mph
(SE 17 kph)
- 10SM
18:15
Clear
91°F / 33°C 70°F / 21°C 49% 29.92 in
(1013 mb)
SE 9.2 mph
(SE 15 kph)
- 10SM
17:55
Clear
91°F / 33°C 68°F / 20°C 46% 29.95 in
(1014 mb)
ESE 9.2 mph
(ESE 15 kph)
- 10SM
17:35
Clear
91°F / 33°C 70°F / 21°C 49% 29.95 in
(1014 mb)
ESE 6.9 mph
(ESE 11 kph)
- 10SM
17:15
Clear
91°F / 33°C 68°F / 20°C 46% 29.95 in
(1014 mb)
SE 9.2 mph
(SE 15 kph)
- 10SM
16:55
Clear
93°F / 34°C 70°F / 21°C 47% 29.95 in
(1014 mb)
SE 9.2 mph
(SE 15 kph)
- 10SM
16:35
Clear
93°F / 34°C 70°F / 21°C 47% 29.95 in
(1014 mb)
SE 9.2 mph
(SE 15 kph)
- 10SM
16:15
Clear
93°F / 34°C 70°F / 21°C 47% 29.95 in
(1014 mb)
SE 6.9 mph
(SE 11 kph)
- 10SM
15:55
Clear
93°F / 34°C 70°F / 21°C 47% 29.95 in
(1014 mb)
SSE 8.1 mph
(SSE 13 kph)
- 10SM
15:35
Clear
93°F / 34°C 68°F / 20°C 44% 29.95 in
(1014 mb)
S 3.5 mph
(S 6 kph)
- 10SM
15:15
Clear
91°F / 33°C 70°F / 21°C 49% 29.98 in
(1015 mb)
SE 6.9 mph
(SE 11 kph)
- 10SM
14:55
Clear
93°F / 34°C 68°F / 20°C 44% 29.98 in
(1015 mb)
SE 5.8 mph
(SE 9 kph)
- 10SM
14:35
Clear
93°F / 34°C 70°F / 21°C 47% 29.98 in
(1015 mb)
SSE 8.1 mph
(SSE 13 kph)
- 10SM
14:15
Clear
93°F / 34°C 70°F / 21°C 47% 29.98 in
(1015 mb)
S 6.9 mph
(S 11 kph)
- 10SM
13:55
Clear
91°F / 33°C 70°F / 21°C 49% 30.01 in
(1016 mb)
SE 5.8 mph
(SE 9 kph)
- 10SM
13:35
Clear
91°F / 33°C 70°F / 21°C 49% 30.01 in
(1016 mb)
SSE 9.2 mph
(SSE 15 kph)
- 10SM
13:15
Clear
91°F / 33°C 70°F / 21°C 49% 30.01 in
(1016 mb)
SE 5.8 mph
(SE 9 kph)
- 10SM
12:55
Clear
91°F / 33°C 72°F / 22°C 52% 30.04 in
(1017 mb)
ESE 6.9 mph
(ESE 11 kph)
- 10SM
12:35
Clear
90°F / 32°C 70°F / 21°C 52% 30.04 in
(1017 mb)
SE 6.9 mph
(SE 11 kph)
- 10SM
12:15
Clear
90°F / 32°C 72°F / 22°C 55% 30.04 in
(1017 mb)
SE 5.8 mph
(SE 9 kph)
- 10SM
11:55
Partly Cloudy
90°F / 32°C 72°F / 22°C 55% 30.04 in
(1017 mb)
S 6.9 mph
(S 11 kph)
- 10SM
11:35
Partly Cloudy
88°F / 31°C 72°F / 22°C 59% 30.04 in
(1017 mb)
SSE 4.6 mph
(SSE 7 kph)
- 10SM
11:15
Clear
90°F / 32°C 72°F / 22°C 55% 30.06 in
(1018 mb)
S 6.9 mph
(S 11 kph)
- 10SM
10:55
Clear
88°F / 31°C 72°F / 22°C 59% 30.06 in
(1018 mb)
SSE 4.6 mph
(SSE 7 kph)
- 10SM
10:35
Partly Cloudy
86°F / 30°C 73°F / 23°C 66% 30.06 in
(1018 mb)
S 5.8 mph
(S 9 kph)
- 10SM
10:15
Partly Cloudy
86°F / 30°C 72°F / 22°C 62% 30.06 in
(1018 mb)
S 8.1 mph
(S 13 kph)
- 10SM
09:55
Partly Cloudy
86°F / 30°C 72°F / 22°C 62% 30.06 in
(1018 mb)
SE 6.9 mph
(SE 11 kph)
- 10SM
09:35
Partly Cloudy
84°F / 29°C 73°F / 23°C 70% 30.06 in
(1018 mb)
SW 4.6 mph
(SW 7 kph)
- 10SM
09:15
Partly Cloudy
82°F / 28°C 73°F / 23°C 74% 30.06 in
(1018 mb)
S 3.5 mph
(S 6 kph)
- 10SM
08:55
Clear
81°F / 27°C 73°F / 23°C 79% 30.06 in
(1018 mb)
SSE 4.6 mph
(SSE 7 kph)
- 10SM
08:35
Partly Cloudy
81°F / 27°C 73°F / 23°C 79% 30.06 in
(1018 mb)
Calm - 10SM
08:15
Mostly Cloudy
79°F / 26°C 73°F / 23°C 84% 30.06 in
(1018 mb)
SE 4.6 mph
(SE 7 kph)
- 10SM
07:55
Partly Cloudy
77°F / 25°C 73°F / 23°C 89% 30.06 in
(1018 mb)
SE 3.5 mph
(SE 6 kph)
- 10SM
07:35
Mostly Cloudy
75°F / 24°C 73°F / 23°C 94% 30.06 in
(1018 mb)
Calm - 7SM
07:15
Partly Cloudy
75°F / 24°C 73°F / 23°C 94% 30.06 in
(1018 mb)
Calm - 7SM
06:55
Clear
Fog And Mist
73°F / 23°C 72°F / 22°C 94% 30.06 in
(1018 mb)
Calm - 5SM
06:35
Partly Cloudy
73°F / 23°C 72°F / 22°C 94% 30.06 in
(1018 mb)
Calm - 7SM
06:15
Clear
Fog And Mist
73°F / 23°C 72°F / 22°C 94% 30.06 in
(1018 mb)
Calm - 5SM
05:55
Clear
73°F / 23°C 72°F / 22°C 94% 30.06 in
(1018 mb)
Calm - 7SM
05:35
Clear
Fog And Mist
72°F / 22°C 72°F / 22°C 100% 30.06 in
(1018 mb)
Calm - 5SM
05:15
Clear
73°F / 23°C 72°F / 22°C 94% 30.06 in
(1018 mb)
Calm - 7SM
04:55
Clear
73°F / 23°C 72°F / 22°C 94% 30.06 in
(1018 mb)
Calm - 7SM
04:35
Clear
Fog And Mist
73°F / 23°C 72°F / 22°C 94% 30.06 in
(1018 mb)
Calm - 5SM
04:15
Clear
73°F / 23°C 72°F / 22°C 94% 30.06 in
(1018 mb)
Calm - 7SM
03:55
Clear
Fog And Mist
73°F / 23°C 72°F / 22°C 94% 30.06 in
(1018 mb)
Calm - 5SM
03:35
Clear
73°F / 23°C 72°F / 22°C 94% 30.06 in
(1018 mb)
Calm - 7SM
03:15
Clear
73°F / 23°C 72°F / 22°C 94% 30.06 in
(1018 mb)
Calm - 7SM
02:55
Clear
73°F / 23°C 72°F / 22°C 94% 30.06 in
(1018 mb)
Calm - 7SM
02:35
Clear
73°F / 23°C 72°F / 22°C 94% 30.06 in
(1018 mb)
Calm - 10SM
02:15
Clear
73°F / 23°C 72°F / 22°C 94% 30.06 in
(1018 mb)
Calm - 10SM
01:55
Clear
73°F / 23°C 72°F / 22°C 94% 30.06 in
(1018 mb)
Calm - 10SM
01:35
Clear
73°F / 23°C 72°F / 22°C 94% 30.06 in
(1018 mb)
Calm - 10SM
01:15
Clear
75°F / 24°C 72°F / 22°C 89% 30.06 in
(1018 mb)
Calm - 10SM
00:55
Clear
75°F / 24°C 72°F / 22°C 89% 30.06 in
(1018 mb)
Calm - 10SM
00:35
Clear
75°F / 24°C 72°F / 22°C 89% 30.06 in
(1018 mb)
Calm - 10SM
00:15
Clear
75°F / 24°C 73°F / 23°C 94% 30.06 in
(1018 mb)
Calm - 10SM
Time Weather Temperature Dewpoint Humidity Pressure Winds Precip Visibility


Weather for websites

WeatherForYou.com, LLC is not responsible for any damages or problems caused by this service. Current weather conditions are obtained from the closest station including government and personal stations which may have varying degrees of accuracy. Weather forecasts are derived from the NOAA NDFD. Like all things, this site belongs to Jesus Christ... He just trusts me to maintain it. If you have any questions or comments email webmaster@weatherforyou.com

Copyright © 2014, WeatherForYou.com LLC. All rights reserved.